#timestamp,LO_Frequency,Hit 
1499828415.3,286047064.0,N
1499828435.2,286047064.6,N
1499828455.9,286047064.3,N
1499828475.7,286047064.9,N
1499828495.6,286047064.4,N
1499828515.4,286047063.8,N
1499828535.2,286047064.0,N
1499828555.1,286047066.5,N
1499828556.0,286047066.5,N
1499828575.8,286047065.8,N
1499828595.6,286047063.8,N
1499828615.5,286047063.7,N
1499828635.3,286047066.0,N
1499828655.1,286047066.6,N
1499828675.9,286047066.0,N
1499828695.7,286047065.9,N
1499828715.5,286047065.6,N
1499828735.3,286047066.0,N
1499828755.2,286047065.4,N
1499828775.0,286047065.8,N
1499828775.9,286047065.8,N
1499828795.7,286047066.1,N
1499828815.6,286047068.1,N
1499828835.4,286047068.4,N
1499828855.2,286047067.3,N
1499828875.1,286047067.4,N
1499828876.0,286047067.4,N
1499828895.8,286047067.4,N
1499828915.6,286047069.3,N
1499828935.5,286047067.5,N
1499828955.3,286047067.5,N
1499828975.1,286047069.6,N
1499828995.9,286047067.0,N
1499829015.7,286047069.9,N
1499829035.5,286047069.2,N
1499829055.4,286047069.6,N
1499829075.2,286047067.7,N
1499829095.0,286047067.3,N
1499829095.9,286047067.3,N
1499829115.8,286047069.7,N
1499829135.6,286047069.9,N
1499829155.4,286047069.2,N
1499829175.2,286047071.5,N
1499829195.1,286047068.7,N
1499829196.0,286047068.7,N
1499829215.8,286047071.0,N
1499829235.6,286047071.5,N
1499829255.5,286047066.9,N
1499829275.3,286047068.8,N
1499829295.1,286047069.1,N
1499829315.9,286047066.9,N
1499829335.7,286047071.2,N
1499829355.5,286047069.1,N
1499829375.4,286047068.5,N
1499829395.2,286047070.9,N
1499829415.0,286047071.4,N
1499829415.9,286047071.4,N
1499829435.8,286047070.3,N
1499829455.6,286047070.2,N
1499829475.4,286047073.2,N
1499829495.3,286047072.9,N
1499829515.1,286047070.1,N
1499829516.0,286047070.1,N
1499829535.8,286047072.8,N
1499829555.7,286047073.0,N
1499829575.5,286047072.8,N
1499829595.3,286047073.2,N
1499829615.1,286047072.7,N
1499829635.9,286047073.8,N
1499829655.7,286047073.7,N
1499829675.5,286047076.0,N
1499829695.4,286047073.5,N
1499829715.2,286047074.2,N
1499829735.0,286047074.4,N
1499829735.9,286047074.4,N
1499829755.8,286047074.4,N
1499829775.6,286047073.6,N
1499829795.4,286047072.0,N
1499829815.3,286047074.2,N
1499829835.1,286047077.6,N
1499829855.8,286047073.4,N
1499829875.7,286047075.9,N
1499829895.5,286047076.4,N
1499829915.3,286047073.5,N
1499829935.2,286047073.5,N
1499829955.9,286047073.3,N
1499829975.7,286047073.6,N
1499829995.6,286047074.5,N
1499830015.4,286047073.8,N
1499830035.2,286047075.5,N
1499830055.0,286047076.2,N
1499830055.9,286047076.2,N
1499830075.8,286047077.6,N
1499830095.6,286047075.4,N
1499830115.4,286047075.1,N
1499830135.3,286047075.3,N
1499830155.1,286047076.6,N
1499830175.8,286047077.2,N
1499830195.7,286047074.9,N
1499830215.5,286047077.9,N
1499830235.3,286047077.9,N
1499830255.2,286047077.6,N
1499830275.9,286047077.9,N
1499830295.7,286047077.5,N
1499830315.6,286047075.3,N
1499830335.4,286047077.5,N
1499830355.2,286047077.7,N
1499830375.1,286047077.3,N
1499830376.0,286047077.3,N
1499830395.8,286047077.3,N
1499830415.6,286047077.3,N
1499830435.5,286047079.6,N
1499830455.3,286047076.6,N
1499830475.1,286047077.8,N
1499830495.8,286047077.3,N
1499830515.7,286047077.2,N
1499830535.5,286047077.1,N
1499830555.3,286047079.5,N
1499830575.2,286047079.2,N
1499830595.9,286047078.7,N
1499830615.7,286047079.5,N
1499830635.6,286047079.4,N
1499830655.4,286047078.2,N
1499830675.2,286047078.5,N
1499830695.1,286047078.4,N
1499830696.0,286047078.4,N
1499830715.8,286047078.9,N
1499830735.6,286047078.9,N
1499830755.5,286047078.1,N
1499830775.3,286047081.2,N
1499830795.1,286047080.9,N
1499830815.8,286047080.0,N
1499830835.7,286047082.7,N
1499830855.5,286047082.4,N
1499830875.3,286047080.2,N
1499830895.2,286047082.7,N
1499830915.0,286047082.0,N
1499830915.9,286047082.0,N
1499830935.7,286047081.7,N
1499830955.6,286047082.1,N
1499830975.4,286047081.3,N
1499830995.2,286047081.7,N
1499831015.1,286047083.3,N
1499831016.0,286047083.3,N
1499831035.8,286047084.3,N
1499831055.6,286047082.0,N
1499831075.5,286047083.4,N
1499831095.3,286047083.0,N
1499831115.1,286047083.6,N
1499831135.9,286047084.1,N
1499831155.7,286047081.7,N
1499831175.5,286047081.4,N
1499831195.4,286047083.5,N
1499831215.2,286047081.5,N
1499831235.0,286047083.4,N
1499831235.9,286047083.4,N
1499831255.7,286047083.8,N
1499831275.6,286047083.9,N
1499831295.4,286047081.3,N
1499831315.2,286047082.1,N
1499831335.1,286047082.0,N
1499831336.0,286047082.0,N
1499831355.8,286047081.3,N
1499831375.6,286047083.9,N
1499831395.5,286047083.5,N
1499831415.3,286047081.9,N
1499831435.1,286047083.9,N
1499831455.9,286047083.2,N
1499831475.7,286047083.3,N
1499831495.5,286047084.1,N
1499831515.4,286047081.3,N
1499831535.2,286047084.0,N
1499831555.0,286047083.2,N
1499831555.9,286047083.2,N
1499831575.8,286047087.1,N
1499831595.6,286047086.7,N
1499831615.4,286047087.6,N
1499831635.3,286047085.6,N
1499831655.1,286047083.2,N
1499831656.0,286047083.2,N
1499831675.8,286047083.4,N
1499831695.7,286047083.0,N
1499831715.5,286047086.0,N
1499831735.3,286047083.0,N
1499831755.1,286047083.6,N
1499831775.9,286047085.8,N
1499831795.7,286047085.2,N
1499831815.5,286047085.2,N
1499831835.4,286047082.9,N
1499831855.2,286047085.4,N
1499831875.0,286047083.2,N
1499831875.9,286047083.2,N
1499831895.8,286047083.5,N
1499831915.6,286047083.2,N
1499831935.4,286047083.0,N
1499831955.3,286047084.0,N
1499831975.1,286047081.3,N
1499831976.0,286047081.3,N
1499831995.8,286047083.6,N
